{"data":{"norad_id":55576,"intl_designator":"2023-020H","name":"STARLINK-5751","alt_names":[],"object_type":"PAYLOAD","status":"ACTIVE","operator":null,"country":"US","launch_date":"2023-02-12","launch_site_code":"AFETR","launch_vehicle":null,"mission":null,"orbit_class":"UNKNOWN","rcs_meters":null,"size_class":null,"mass_kg":null,"dimensions":null,"purposes":["comms"],"wikipedia_slug":null,"has_3d_model":false,"image_url":null,"decayed_at":null,"tle_current":{"epoch":"2026-05-24T19:41:38.118048Z","epoch_age_seconds":90580,"freshness":"FRESH","line1":"1 55576U 23020H   26144.82058007 -.00000466  00000+0 -74109-5 0  9995","line2":"2 55576  43.0014 269.4664 0001457 260.3624  99.7063 15.27580649180852","mean_motion":15.27580649,"eccentricity":0.0001457,"inclination_deg":43.0014,"raan_deg":269.4664,"arg_perigee_deg":260.3624,"mean_anomaly_deg":99.7063,"bstar":-7.4109e-6,"rev_number":18085,"period_min":94.266708663969,"perigee_km":482.04747816982,"apogee_km":484.04682723191,"semimajor_km":6861.1841527009,"source":"CELESTRAK","updated_at":"2026-05-25T13:38:17.835862Z"}}}